Location: Escondida
(34.1015°N, 106.8964°W)
Time: 02:24:00
(UTC+00:00)

STARLINK-36105 - Pass Details

Date: 11 December 2025
Orbit: 482 x 484 km, 43.0° (Epoch: 17 January)

Event Time Altitude Azimuth Distance (km) Brightness Sun altitude
Exits shadow 11:16:39 12° 117° (ESE) 1,555 5.6 -33.7°
Drops below altitude 10° 11:17:14 10° 108° (ESE) 1,650 5.8 -33.5°
Enters shadow 12:20:29 -60° 240° (WSW) 11,592 9.3 -20.7°
Maximum altitude 12:54:03 88° 155° (SSE) 484 2.3 -14.0°
